Regional Weather Roundup
Issued by NWS Newport/Morehead, NC

Current Version | Previous Version | Graphics & Text | Print | Product List | Glossary Off
Versions: 1 2 3 4 5 6 7 8 9 10 11 12 13 14 15 16 17 18 19 20 21 22 23 24 25 26 27 28 29 30 31 32 33 34 35 36 37 38 39 40 41 42 43 44 45 46 47 48 49 50

000
ASUS42 KMHX 280022
RWRMHX
WEATHER ROUNDUP FOR EASTERN NORTH CAROLINA
NATIONAL WEATHER SERVICE NEWPORT/MOREHEAD CITY NC
700 PM EST SAT DEC 27 2014

NOTE: "FAIR" INDICATES FEW OR NO CLOUDS BELOW 12,000 FEET
WITH NO SIGNIFICANT WEATHER AND/OR OBSTRUCTIONS TO VISIBILITY

NCZ015>017-031-032-045>047-102-103-280100-
NORTH COAST

CITY           SKY/WX    TMP DP  RH WIND       PRES   REMARKS
EDENTON          N/A     49  42  78 S7        30.25R
ELIZABETH CITY CLEAR     52  41  66 SE5       30.24S
KITTY HAWK     CLEAR     49  39  69 S3        30.23F
MANTEO         CLEAR     48  43  81 S8        30.24F

$$

NCZ045>047-081-094-103-104-280100-
CENTRAL COAST

CITY           SKY/WX    TMP DP  RH WIND       PRES   REMARKS
FRISCO         PTCLDY    42  40  92 CALM      30.26S
SWANQUARTER      N/A     46 N/A N/A SE3       30.24R

$$

NCZ095-097-098-100-101-280100-
SOUTHERN COAST

CITY           SKY/WX    TMP DP  RH WIND       PRES   REMARKS
BEAUFORT       CLEAR     48  44  86 S3        30.27S
CEDAR ISLAND     N/A     48 N/A N/A SE3       30.30S
JACKSONVILLE   CLEAR     50  44  80 CALM      30.26S
PINEY ISLAND   CLEAR     50  42  74 S7        30.26S
WILMINGTON     CLEAR     51  45  79 CALM      30.27S


$$

NCZ011>013-027>030-043-044-078>080-089-090>093-098-280100-
COASTAL PLAIN

CITY           SKY/WX    TMP DP  RH WIND       PRES   REMARKS
AHOSKIE        CLEAR     43  38  83 CALM      30.24S
CLINTON        CLEAR     48  43  81 CALM      30.26S
ELIZABETHTOWN  CLEAR     50  45  82 CALM      30.24F
GOLDSBORO      CLEAR     47  45  92 S2        30.22F
GREENVILLE     CLEAR     46  39  76 CALM      30.25S
HAVELOCK       CLEAR     48  41  76 CALM      30.28R
KENANSVILLE    CLEAR     44  40  83 CALM      30.26S
KINSTON        CLEAR     45  41  87 CALM      30.25F
NEW BERN       CLEAR     50  41  71 S3        30.27R
RICHLANDS      CLEAR     46  41  81 S5        30.26F
ROCKY MOUNT    CLEAR     46  41  82 CALM      30.24S
WASHINGTON     CLEAR     44  39  81 SE3       30.25F
WHITEVILLE     CLEAR     54  45  71 CALM      30.25F

$$

AMZ130-135-150-152-154-156-158-170-250-252-270-ANZ085-086-088-633-658-670-280100-
MARINE OBSERVATIONS

STATION/POSITION TIME  TEMP    WIND        PRES    WAVE   SWELL
                       AIR SEA DIR/SP/G            HT/PER HT/PER
                 (UTC) (F)     (DEG/KT/KT) (MB)    (FT/S) (FT/S)
CHESAPEAKE LIGHT 0000   50     180/ 18/ 18 1024.0
64 E VA BEACH    0000   53 53  170/  8/ 10 1023.8    4/15   3/15
DUCK             0000   49 49  160/  9/ 11 1022.9
2 E DUCK         0000      48                N/A     3/15   3/15
10 NE DUCK       0000      50                N/A     3/15   3/15
OREGON INLET     0000   49 53  160/  5/  6 1024.2
13E OREGON INLT  0000      53                N/A     3/14   2/14
HATTERAS CG      0000   50 55     CALM     1025.0
DIAMOND BUOY     0000   63                 1025.1    4/16
17 S OCRACOKE    NOT AVBL
CAPE LOOKOUT     0000   56     160/  6/  7 1024.7
BEAUFORT LAB     0000   54 55  170/  4/  5 1023.9
30 SE NEW RIVER  0000   60 61  170/  2/  2 1025.6    3/15   3/15
5 SE WRIGHTSVLE  NOT AVBL
225 S CAPE HAT   2240   69 74  140/ 10/ 14 1025.4    5/15   5/15
41 SE CHARLESTON 0000   69 74   70/ 10/ 12 1023.8    3/ 4   2/10

$$


USA.gov is the U.S. government's official web portal to all federal, state and local government web resources and services.